Location: La Oliva
(42.2466°N, 2.9955°E)
Time: 07:20:18
(UTC+00:00)

Cosmos 2251 Rocket - Pass Details

Date: 22 April 2021
Orbit: 765 x 791 km, 74.0° (Epoch: 07 May)

Event Time Altitude Azimuth Distance (km) Brightness Sun altitude
Rises 19:18:47 0° 197° (SSW) 3,272 6.7 -7.9°
Reaches altitude 10° 19:21:10 10° 198° (SSW) 2,345 5.9 -8.3°
Maximum altitude 19:26:31 89° 110° (ESE) 793 3.6 -9.2°
Drops below altitude 10° 19:31:52 10° 20° (NNE) 2,349 6.1 -10.1°
Sets 19:34:16 0° 21° (NNE) 3,277 6.9 -10.5°
